Showing default

KSF3-B, 55019

Orbit data source: Space-Track

KSF3-B, 55019 is a payload satellite owned by Kleos Space (LU) in SSO that was launched on Tue, 03 Jan 2023 UTC via an FALCON 9 launch vehicle from the Air Force Eastern Test Range (AFETR). Payload-class satellites include a variety of spacecraft equipped with specific instruments for various scientific and technological missions. These include communications satellites like Starlink; space stations such as the ISS; scientific satellites like the Hubble; Earth observation satellites from companies like Planet Labs, Umbra, and HawkEye 360; GPS; miniature CubeSats for education and research; and military/defense satellites.

Loading next visibility...
Identifier
55019, 2023-001L
Orbit
SSO
Country
Flag of UnknownUnknown / LUXE
Related business
Manufacturer
ISIS BV
Mission
Operational Commercial Sigint
Bus & Motor
CUBESAT 6U, Unknown motor
Mass
~10 kg wet, ~10 kg dry
Launch date (UTC)
2023-01-03 (3 years ago)
Launch vehicle
FALCON 9
Launch site
Air Force Eastern Test Range (AFETR)
Object type
Payload
Rocket body
Debris
Shape & HBR
Box, 0.1 m
Radar Cross Section
0.080 m², Medium (>0.1 m² and < 1m²)

Expand to show TLE details & history
Last TLE update: 10 hours ago

TLE from 10 hours ago
0 KSF3-B
1 55019U 23001L   25286.94327485  .00138851  00000-0  13940-2 0  9996
2 55019  97.3578   1.6267 0004030 172.0434 188.0890 15.65032109155334
Epoch: 2025-10-13T22:38Z
TLE epoch observation values (Epoch: 2025-10-13T22:38:18.947Z)
Latitude
-0.00002°
Longitude
-0.69105°
Altitude
378.993 km
Speed
7.681 km/s
True Right ascension
00h 06m 30s
True Declination
0° 00' 00"
Sunlit
Object was in full shadow at epoch
Visualization orbit readout
Latitude
Unknown
Longitude
Unknown
Altitude
Unknown
Speed
Unknown
Apparent Right ascension
Unknown
Apparent Declination
Unknown
Sunlit
N/A
Visualization observer readout
Local Sidereal Time
02:54:07
Azimuth
Unknown
Elevation
Unknown
Doppler factor
Unknown
Orbital elements
Apogee altitude
372.77 km
Perigee altitude
367.331 km
Semi-major axis
6,748.187 km
Eccentricity
0.0004
Inclination
97.3578°
RAAN
1.6267°
Arg. of periapsis
172.0434°
True anomaly
188.08251°
Mean anomaly
188.089°
Eccentric anomaly
188.08575°
Mean motion
3.91528 °/min
Orbital period
91.95 mins
BSTAR
0.001394
Loading maneuver chart data...
Computing Atmospheric mass density...
Loading historical data...
Loading historical data...
Loading historical data...
Loading historical data...
Loading historical data...
Loading historical data...
Loading historical data...

Documentation

Showing up to 5 results
|